Terminal Aerodrome Forecast
Issued by NWS

Home | Current Version | Previous Version | Text Only | Print | Product List | Glossary On
Versions: 1 2 3 4 5 6 7 8 9 10 11 12 13 14 15 16 17 18 19 20 21 22 23 24 25 26 27 28 29 30 31 32 33 34 35 36 37 38 39 40 41 42 43 44 45 46 47 48 49
000
FTAK31 PANC 031126
TAFACD
TAF
PACD 031126Z 0312/0412 33005KT P6SM SKC
     FM031800 05007KT P6SM BKN040
     FM040300 10010KT P6SM VCSH BKN040 OVC060
     FM040900 11012G20KT P6SM -SHRA BKN025 OVC040=

USA.gov is the U.S. government's official web portal to all federal, state and local government web resources and services.